Search the data

BODC Cruise Metadata Report for Prince Madog (74PD) cruise PM4DW12

Introduction

This report collates information from the BODC cruise inventory and oceanographic databases. It presents

Cruise Inventory Information

Long name Prince Madog (74PD) cruise PM4DW12
Short name PM4DW12
Objectives and Narrative Liverpool Bay Front Survey.
Ship Prince Madog
Departure Port Menai Bridge, United Kingdom
Departure Date 1978-06-19
Arrival Port Menai Bridge, United Kingdom
Arrival Date 1978-06-22
Principal Scientist(s) Steven P R Czitrom Baus (University of Wales, Bangor School of Ocean Sciences)
Responsible Organisation University of Wales, Bangor School of Ocean Sciences
Associated Project(s)
IHB Sea Areas Visited Irish Sea and St. George's Channel
Marsden Squares Visited 181;133/181;134
Work Area Description
Work Area Bounding Polygon 53N,5W; 54N,5W; 54N,3W; 53N,3W; 53N,5W
Southern Limit 53N
Northern Limit 54N
Western Limit 5W
Eastern Limit 3W

Cruise Inventory Datasets

Physical oceanography  
CTD stations Quantity: number of stations = 68
Description:  

Cruise Inventory Mooring/Buoy Operations

No information on datasets is currently available

Summary of BODC Data Holdings for the Cruise

National Oceanographic Database

Summary

# Series Instrument Description Parameters
68 CTD/STD cast Salinity of the water column
Temperature of the water column
Vertical spatial coordinates

Note: Parameter terms are taken from the BODC Parameter Discovery Vocabulary XML (SKOS)

Full List

BODC Reference Instrument Description Date/Time Location  
64526 CTD/STD cast 1978-06-19 15:35Z 53° 41' N, 3° 19' W Click for more
64538 CTD/STD cast 1978-06-19 17:00Z 53° 40' N, 3° 27' W Click for more
64551 CTD/STD cast 1978-06-19 17:50Z 53° 41' N, 3° 33' W Click for more
64563 CTD/STD cast 1978-06-19 19:30Z 53° 41' N, 3° 40' W Click for more
64575 CTD/STD cast 1978-06-19 20:27Z 53° 41' N, 3° 46' W Click for more
64587 CTD/STD cast 1978-06-19 21:45Z 53° 40' N, 3° 53' W Click for more
64599 CTD/STD cast 1978-06-19 22:30Z 53° 41' N, 4° 0' W Click for more
64606 CTD/STD cast 1978-06-19 23:43Z 53° 40' N, 4° 7' W Click for more
64618 CTD/STD cast 1978-06-20 01:52Z 53° 33' N, 4° 6' W Click for more
64631 CTD/STD cast 1978-06-20 02:54Z 53° 33' N, 4° 0' W Click for more
64643 CTD/STD cast 1978-06-20 03:50Z 53° 33' N, 3° 53' W Click for more
64655 CTD/STD cast 1978-06-20 04:37Z 53° 33' N, 3° 46' W Click for more
64667 CTD/STD cast 1978-06-20 05:40Z 53° 33' N, 3° 39' W Click for more
64679 CTD/STD cast 1978-06-20 06:15Z 53° 33' N, 3° 33' W Click for more
64680 CTD/STD cast 1978-06-20 06:50Z 53° 33' N, 3° 27' W Click for more
64692 CTD/STD cast 1978-06-20 08:52Z 53° 47' N, 3° 21' W Click for more
64711 CTD/STD cast 1978-06-20 09:32Z 53° 49' N, 3° 26' W Click for more
64723 CTD/STD cast 1978-06-20 10:40Z 53° 49' N, 3° 32' W Click for more
64735 CTD/STD cast 1978-06-20 11:44Z 53° 49' N, 3° 39' W Click for more
64747 CTD/STD cast 1978-06-20 12:23Z 53° 48' N, 3° 46' W Click for more
64759 CTD/STD cast 1978-06-20 13:04Z 53° 49' N, 3° 53' W Click for more
64760 CTD/STD cast 1978-06-20 13:45Z 53° 49' N, 4° 0' W Click for more
64772 CTD/STD cast 1978-06-20 14:20Z 53° 49' N, 4° 7' W Click for more
64784 CTD/STD cast 1978-06-20 14:58Z 53° 48' N, 4° 12' W Click for more
64796 CTD/STD cast 1978-06-20 16:20Z 53° 57' N, 4° 12' W Click for more
64803 CTD/STD cast 1978-06-20 17:40Z 53° 57' N, 4° 6' W Click for more
64815 CTD/STD cast 1978-06-20 18:22Z 53° 57' N, 3° 59' W Click for more
64827 CTD/STD cast 1978-06-20 19:40Z 53° 57' N, 3° 53' W Click for more
64839 CTD/STD cast 1978-06-20 20:10Z 53° 57' N, 3° 46' W Click for more
64840 CTD/STD cast 1978-06-20 21:20Z 53° 57' N, 3° 40' W Click for more
64852 CTD/STD cast 1978-06-20 21:58Z 53° 57' N, 3° 33' W Click for more
64864 CTD/STD cast 1978-06-20 23:35Z 53° 57' N, 3° 27' W Click for more
64876 CTD/STD cast 1978-06-21 00:25Z 53° 56' N, 3° 19' W Click for more
64888 CTD/STD cast 1978-06-21 01:28Z 54° 0' N, 3° 20' W Click for more
64907 CTD/STD cast 1978-06-21 02:15Z 54° 4' N, 3° 19' W Click for more
64919 CTD/STD cast 1978-06-21 02:55Z 54° 4' N, 3° 25' W Click for more
64920 CTD/STD cast 1978-06-21 03:40Z 54° 4' N, 3° 34' W Click for more
64932 CTD/STD cast 1978-06-21 04:27Z 54° 4' N, 3° 40' W Click for more
64944 CTD/STD cast 1978-06-21 05:15Z 54° 4' N, 3° 46' W Click for more
64956 CTD/STD cast 1978-06-21 06:03Z 54° 4' N, 3° 53' W Click for more
64968 CTD/STD cast 1978-06-21 06:58Z 54° 5' N, 4° 0' W Click for more
64981 CTD/STD cast 1978-06-21 07:55Z 54° 4' N, 4° 7' W Click for more
64993 CTD/STD cast 1978-06-21 08:55Z 54° 5' N, 4° 15' W Click for more
65007 CTD/STD cast 1978-06-21 09:40Z 54° 5' N, 4° 19' W Click for more
65019 CTD/STD cast 1978-06-21 11:05Z 53° 57' N, 4° 25' W Click for more
65020 CTD/STD cast 1978-06-21 11:43Z 53° 57' N, 4° 20' W Click for more
65032 CTD/STD cast 1978-06-21 12:29Z 53° 57' N, 4° 13' W Click for more
65044 CTD/STD cast 1978-06-21 13:23Z 53° 57' N, 4° 7' W Click for more
65056 CTD/STD cast 1978-06-21 14:18Z 53° 57' N, 4° 0' W Click for more
65068 CTD/STD cast 1978-06-21 15:07Z 53° 57' N, 3° 53' W Click for more
65081 CTD/STD cast 1978-06-21 16:17Z 53° 49' N, 3° 53' W Click for more
65093 CTD/STD cast 1978-06-21 17:18Z 53° 48' N, 3° 46' W Click for more
65100 CTD/STD cast 1978-06-21 18:02Z 53° 49' N, 3° 53' W Click for more
65112 CTD/STD cast 1978-06-21 18:52Z 53° 49' N, 4° 0' W Click for more
65124 CTD/STD cast 1978-06-21 19:48Z 53° 49' N, 4° 6' W Click for more
65136 CTD/STD cast 1978-06-21 21:25Z 53° 49' N, 4° 13' W Click for more
65148 CTD/STD cast 1978-06-21 23:31Z 53° 41' N, 4° 26' W Click for more
65161 CTD/STD cast 1978-06-22 00:38Z 53° 40' N, 4° 20' W Click for more
65173 CTD/STD cast 1978-06-22 01:28Z 53° 41' N, 4° 14' W Click for more
65185 CTD/STD cast 1978-06-22 02:55Z 53° 40' N, 4° 7' W Click for more
65197 CTD/STD cast 1978-06-22 04:50Z 53° 41' N, 4° 0' W Click for more
65204 CTD/STD cast 1978-06-22 17:35Z 53° 48' N, 3° 33' W Click for more
65216 CTD/STD cast 1978-06-22 18:38Z 53° 40' N, 3° 33' W Click for more
65228 CTD/STD cast 1978-06-22 19:32Z 53° 40' N, 3° 40' W Click for more
65241 CTD/STD cast 1978-06-22 20:30Z 53° 41' N, 3° 46' W Click for more
65253 CTD/STD cast 1978-06-22 21:38Z 53° 40' N, 3° 52' W Click for more
65265 CTD/STD cast 1978-06-22 22:30Z 53° 41' N, 4° 0' W Click for more
65277 CTD/STD cast 1978-06-22 23:55Z 53° 40' N, 4° 7' W Click for more

Project Database

No data currently held for this cruise in the BODC Project Database

References

Track Charts

Track Chart

Reports

No reports currently available